Погода в Трухильо

Венесуэла     9°22′13″N   70°26′13″W
темп.,
°C
ветер,
м/с
пор.,
м/с
влажн.,
%
обл.,
%
осадки,
мм/ч
давл.,
гПа
погр.,
м
11 апреля, вс
вс1123:00+15ююв228298 0.1 101625
02:00+14ююв2181100 0.1 101434
05:00+15ююв228096 0.0 101447
08:00+17юв1273100 0.0 1015108
11:00+22с1258100 0.0 10141030
14:00+20с127972 2.4 1012814
17:00+18ссв119281 6.8 1011272
20:00+16ююв2294100 9.1 101348
12 апреля, пн
пн1223:00+15ююв2292100 0.8 101544
02:00+14ююв339163 0.8 101452
05:00+14ююв329169 0.0 101447
08:00+17юв238271 0.0 1015168
11:00+22ссв126380 0.1 10141022
14:00+21св127793 2.0 1012803
17:00+19вюв1288100 4.0 1012308
20:00+16ююв3393100 4.7 1015146
13 апреля, вт
вт1323:00+16ююв3491100 1.2 1016125
02:00+15ююв3584100 1.5 1014116
05:00+15ююв3384100 0.1 101371
08:00+17юв137797 0.1 1015125
11:00+23св135463 0.0 10141178
14:00+22св1273100 2.1 1012874
17:00+19в1285100 3.5 1011330
20:00+16ююв3390100 4.0 101454
14 апреля, ср
ср1423:00+15ююв3286100 0.0 101655
02:00+15ююв338781 0.0 101483
05:00+15ююв338619 0.0 101465
08:00+18юв1276100 0.0 1015132
11:00+22с2262100 0.1 10151059
14:00+21всв1275100 2.4 1013849
17:00+20всв1279100 1.9 1011575
20:00+16ююв339189 2.9 101478
15 апреля, чт
чт1523:00+15ююв349098 0.1 101672
02:00+16ююв3386100 0.1 101378
05:00+15ююв3388100 0.1 1013108
08:00+17юв3483100 1.0 1014156
11:00+21вюв136499 0.0 1015695
14:00+22св1359100 0.3 10121162
17:00+20всв1272100 0.8 1011555
20:00+16ююв338897 1.3 101361